Regional Weather Roundup
Issued by NWS

Home | Current Version | Previous Version | Text Only | Print | Product List | Glossary On
Versions: 1 2 3 4 5 6 7 8 9 10 11 12 13 14 15 16 17 18 19 20 21 22 23 24 25 26 27 28 29 30 31 32 33 34 35 36 37 38 39 40 41 42 43 44 45 46 47 48 49 50
000
ASUS43 KLMK 061402
RWRKY
KENTUCKY REGIONAL WEATHER ROUNDUP
NATIONAL WEATHER SERVICE LOUISVILLE KY
900 AM EST TUE DEC 06 2016

NOTE "FAIR" INDICATES FEW OR NO CLOUDS BELOW 12,000 FEET
WITH NO SIGNIFICANT WEATHER AND/OR OBSTRUCTIONS TO VISIBILITY.

KYZ001>023-026-027-061>063-070>075-061500-
WESTERN AND SOUTH CENTRAL KENTUCKY

CITY           SKY/WX    TMP DP  RH WIND       PRES   REMARKS
PADUCAH        LGT RAIN  42  39  89 NW7       29.72R FOG
HENDERSON      CLOUDY    43  37  81 NW5       29.71R
OWENSBORO      RAIN      43  42  97 NW6       29.69R
HOPKINSVILLE   HVY RAIN  45  45 100 NW7       29.67R FOG
BOWLING GREEN  RAIN      47  45  93 N6        29.64S FOG
GLASGOW        NOT AVBL
$$

KYZ024-025-028>034-038-045-046-053-061500-
NORTH CENTRAL KENTUCKY

CITY           SKY/WX    TMP DP  RH WIND       PRES   REMARKS
LOUISVILLE/SDF RAIN      43  40  89 NW6       29.67R VSB 1
LOUISVILLE/LOU HVY RAIN  43  40  89 NW6       29.67R VSB 1
FORT KNOX      RAIN      42  42  99 N5        29.63R FOG
$$

KYZ035>037-039>044-047>052-055>060-089>105-061500-
NORTHEAST KENTUCKY

CITY           SKY/WX    TMP DP  RH WIND       PRES   REMARKS
LEXINGTON      LGT RAIN  44  41  89 E7        29.65R FOG
COVINGTON      LGT RAIN  40  40 100 E6        29.65F FOG
FRANKFORT      CLOUDY    43  40  89 E6        29.63F
$$

KYZ054-064>069-076>088-106>120-061500-
SOUTHEAST KENTUCKY

CITY           SKY/WX    TMP DP  RH WIND       PRES   REMARKS
JACKSON        LGT RAIN  48  46  93 VRB5      29.64F
LONDON         RAIN      52  48  86 S12       29.67R FOG
SOMERSET       LGT RAIN  50  50 100 SE6       29.62F
MIDDLESBORO    RAIN      49  47  95 CALM      29.70R
MONTICELLO     CLOUDY    55  53  93 SE8       29.60F
$$




USA.gov is the U.S. government's official web portal to all federal, state and local government web resources and services.